{"data":{"norad_id":45452,"epoch":"2026-09-20T00:25:00.146784Z","epoch_age_seconds":56103,"freshness":"FRESH","line1":"1 45452U 20020AE  26263.01736281  .00000091  00000+0  22090-3 0  9996","line2":"2 45452  87.8974   2.2127 0002401 100.7276 259.4122 13.11416683315108","mean_motion":13.11416683,"eccentricity":0.0002401,"inclination_deg":87.8974,"raan_deg":2.2127,"arg_perigee_deg":100.7276,"mean_anomaly_deg":259.4122,"bstar":0.0002209,"rev_number":31510,"period_min":109.80491697771,"perigee_km":1215.8599535031,"apogee_km":1219.5074666081,"semimajor_km":7595.8207100556,"source":"CELESTRAK","updated_at":"2026-09-20T09:00:44.558195Z"}}